Time,TemperatureF,DewpointF,PressureIn,WindDirection,WindDirectionDegrees,WindSpeedMPH,WindSpeedGustMPH,Humidity,HourlyPrecipIn,Conditions,Clouds,dailyrainin,SoftwareType,DateUTC
2013-12-13 05:53:00,62.0,-99.9,30.22,SSW,194,13.0,17.0,95,-99.99,,,-99.99,,2013-12-13 10:53:00,
2013-12-13 06:02:00,62.0,-99.9,30.22,SSW,194,13.0,17.0,95,-99.99,,,-99.99,,2013-12-13 11:02:00,
2013-12-13 06:12:00,62.0,-99.9,30.22,SSW,194,13.0,17.0,95,-99.99,,,-99.99,,2013-12-13 11:12:00,
2013-12-13 07:53:00,55.0,51.0,30.21,SE,137,8.0,10.0,85,-99.99,,,-99.99,,2013-12-13 12:53:00,
2013-12-13 08:02:00,55.0,51.0,30.21,SE,137,8.0,10.0,85,-99.99,,,-99.99,,2013-12-13 13:02:00,
2013-12-13 08:22:00,55.0,51.0,30.22,NE,39,9.0,12.0,84,-99.99,,,-99.99,,2013-12-13 13:22:00,
2013-12-13 08:32:00,55.0,51.0,30.22,NE,39,9.0,12.0,84,-99.99,,,-99.99,,2013-12-13 13:32:00,
2013-12-13 08:42:00,55.0,51.0,30.22,NE,39,9.0,12.0,84,-99.99,,,-99.99,,2013-12-13 13:42:00,
2013-12-13 08:52:00,56.0,51.0,30.23,South,190,9.0,11.0,84,-99.99,,,-99.99,,2013-12-13 13:52:00,
2013-12-13 09:02:00,56.0,51.0,30.23,South,190,9.0,11.0,84,-99.99,,,-99.99,,2013-12-13 14:02:00,
2013-12-13 09:22:00,57.0,51.0,30.24,South,183,9.0,11.0,81,-99.99,,,-99.99,,2013-12-13 14:22:00,
2013-12-13 09:32:00,57.0,51.0,30.24,South,183,9.0,11.0,81,-99.99,,,-99.99,,2013-12-13 14:32:00,
2013-12-13 09:42:00,57.0,51.0,30.24,South,183,9.0,11.0,81,-99.99,,,-99.99,,2013-12-13 14:42:00,
2013-12-13 09:53:00,58.0,52.0,30.25,SW,233,7.0,9.0,79,-99.99,,,-99.99,,2013-12-13 14:53:00,
2013-12-13 10:02:00,58.0,52.0,30.25,SW,233,7.0,9.0,79,-99.99,,,-99.99,,2013-12-13 15:02:00,
2013-12-13 10:22:00,61.0,54.0,30.26,SW,224,6.0,8.0,78,-99.99,,,-99.99,,2013-12-13 15:22:00,
2013-12-13 10:33:00,61.0,54.0,30.26,SW,224,6.0,8.0,78,-99.99,,,-99.99,,2013-12-13 15:33:00,
2013-12-13 10:44:00,61.0,54.0,30.26,SW,224,6.0,8.0,78,-99.99,,,-99.99,,2013-12-13 15:44:00,
2013-12-13 11:23:00,65.0,54.0,30.25,NNE,23,5.0,8.0,67,-99.99,,,-99.99,,2013-12-13 16:23:00,
2013-12-13 11:43:00,67.0,55.0,30.24,East,80,4.0,9.0,66,-99.99,,,-99.99,,2013-12-13 16:43:00,
2013-12-13 11:53:00,67.0,55.0,30.24,NE,43,8.0,12.0,64,-99.99,,,-99.99,,2013-12-13 16:53:00,
2013-12-13 12:02:00,67.0,55.0,30.24,NE,43,8.0,12.0,64,-99.99,,,-99.99,,2013-12-13 17:02:00,
2013-12-13 12:22:00,70.0,56.0,30.22,NE,53,9.0,19.0,61,-99.99,,,-99.99,,2013-12-13 17:22:00,
2013-12-13 12:43:00,70.0,55.0,30.22,NE,55,8.0,16.0,60,-99.99,,,-99.99,,2013-12-13 17:43:00,
2013-12-13 12:52:00,71.0,55.0,30.21,East,83,9.0,18.0,57,-99.99,,,-99.99,,2013-12-13 17:52:00,
2013-12-13 13:02:00,71.0,55.0,30.21,East,83,9.0,18.0,57,-99.99,,,-99.99,,2013-12-13 18:02:00,
2013-12-13 13:22:00,71.0,55.0,30.19,ENE,74,9.0,18.0,56,-99.99,,,-99.99,,2013-12-13 18:22:00,
2013-12-13 13:33:00,71.0,55.0,30.19,ENE,74,9.0,18.0,56,-99.99,,,-99.99,,2013-12-13 18:33:00,
2013-12-13 13:52:00,71.0,54.0,30.17,East,84,10.0,24.0,54,-99.99,,,-99.99,,2013-12-13 18:52:00,
2013-12-13 14:12:00,72.0,55.0,30.16,ENE,75,11.0,18.0,54,-99.99,,,-99.99,,2013-12-13 19:12:00,
2013-12-13 14:22:00,72.0,54.0,30.15,ENE,76,11.0,18.0,53,-99.99,,,-99.99,,2013-12-13 19:22:00,
2013-12-13 14:30:00,71.0,54.0,30.15,ENE,68,10.0,16.0,54,-99.99,,,-99.99,,2013-12-13 19:30:00,
2013-12-13 14:32:00,72.0,54.0,30.15,ENE,76,11.0,18.0,53,-99.99,,,-99.99,,2013-12-13 19:32:00,
2013-12-13 14:52:00,71.0,54.0,30.14,ENE,68,12.0,21.0,55,-99.99,,,-99.99,,2013-12-13 19:52:00,
2013-12-13 15:12:00,71.0,54.0,30.15,ENE,68,10.0,16.0,54,-99.99,,,-99.99,,2013-12-13 20:12:00,
2013-12-13 15:22:00,71.0,54.0,30.15,ENE,68,10.0,16.0,54,-99.99,,,-99.99,,2013-12-13 20:22:00,
2013-12-13 15:30:00,72.0,55.0,30.13,ENE,68,11.0,19.0,54,-99.99,,,-99.99,,2013-12-13 20:30:00,
2013-12-13 15:53:00,72.0,55.0,30.14,ENE,67,11.0,19.0,54,-99.99,,,-99.99,,2013-12-13 20:53:00,
2013-12-13 16:11:00,72.0,55.0,30.13,ENE,68,11.0,19.0,54,-99.99,,,-99.99,,2013-12-13 21:11:00,
2013-12-13 16:22:00,72.0,55.0,30.13,ENE,68,11.0,19.0,54,-99.99,,,-99.99,,2013-12-13 21:22:00,
2013-12-13 16:53:00,70.0,54.0,30.13,East,84,10.0,20.0,55,-99.99,,,-99.99,,2013-12-13 21:53:00,
2013-12-13 17:03:00,70.0,54.0,30.13,East,84,10.0,20.0,55,-99.99,,,-99.99,,2013-12-13 22:03:00,
2013-12-13 17:23:00,69.0,53.0,30.13,East,83,9.0,17.0,56,-99.99,,,-99.99,,2013-12-13 22:23:00,
2013-12-13 17:33:00,69.0,53.0,30.13,East,83,9.0,17.0,56,-99.99,,,-99.99,,2013-12-13 22:33:00,
2013-12-13 17:42:00,69.0,53.0,30.13,East,83,9.0,17.0,56,-99.99,,,-99.99,,2013-12-13 22:42:00,
2013-12-13 17:53:00,68.0,53.0,30.13,East,81,6.0,11.0,59,-99.99,,,-99.99,,2013-12-13 22:53:00,
2013-12-13 18:03:00,68.0,53.0,30.13,East,81,6.0,11.0,59,-99.99,,,-99.99,,2013-12-13 23:03:00,
2013-12-13 18:22:00,65.0,53.0,30.13,ENE,76,6.0,11.0,64,-99.99,,,-99.99,,2013-12-13 23:22:00,
2013-12-13 18:33:00,65.0,53.0,30.13,ENE,76,6.0,11.0,64,-99.99,,,-99.99,,2013-12-13 23:33:00,
2013-12-13 18:42:00,65.0,53.0,30.13,ENE,76,6.0,11.0,64,-99.99,,,-99.99,,2013-12-13 23:42:00,
2013-12-13 18:53:00,64.0,54.0,30.14,ENE,65,5.0,8.0,67,-99.99,,,-99.99,,2013-12-13 23:53:00,
2013-12-13 19:02:00,64.0,54.0,30.14,ENE,65,5.0,8.0,67,-99.99,,,-99.99,,2013-12-14 00:02:00,
2013-12-13 19:22:00,62.0,53.0,30.13,ENE,76,5.0,8.0,71,-99.99,,,-99.99,,2013-12-14 00:22:00,
2013-12-13 19:32:00,62.0,53.0,30.13,ENE,76,5.0,8.0,71,-99.99,,,-99.99,,2013-12-14 00:32:00,
2013-12-13 19:42:00,62.0,53.0,30.13,ENE,76,5.0,8.0,71,-99.99,,,-99.99,,2013-12-14 00:42:00,
2013-12-13 19:52:00,62.0,54.0,30.13,ENE,64,4.0,6.0,73,-99.99,,,-99.99,,2013-12-14 00:52:00,
2013-12-13 20:02:00,62.0,54.0,30.13,ENE,64,4.0,6.0,73,-99.99,,,-99.99,,2013-12-14 01:02:00,
2013-12-13 20:22:00,63.0,55.0,30.14,NE,56,6.0,8.0,76,-99.99,,,-99.99,,2013-12-14 01:22:00,
2013-12-13 20:32:00,63.0,55.0,30.14,NE,56,6.0,8.0,76,-99.99,,,-99.99,,2013-12-14 01:32:00,
2013-12-13 20:52:00,62.0,55.0,30.15,NE,55,5.0,7.0,79,-99.99,,,-99.99,,2013-12-14 01:52:00,
2013-12-13 21:01:00,62.0,55.0,30.15,NE,55,5.0,7.0,79,-99.99,,,-99.99,,2013-12-14 02:01:00,
2013-12-13 21:22:00,61.0,54.0,30.15,ENE,70,4.0,6.0,78,-99.99,,,-99.99,,2013-12-14 02:22:00,
2013-12-13 21:32:00,61.0,54.0,30.15,ENE,70,4.0,6.0,78,-99.99,,,-99.99,,2013-12-14 02:32:00,
2013-12-13 21:42:00,61.0,54.0,30.15,ENE,70,4.0,6.0,78,-99.99,,,-99.99,,2013-12-14 02:42:00,
2013-12-13 21:52:00,60.0,55.0,30.15,East,80,2.0,4.0,82,-99.99,,,-99.99,,2013-12-14 02:52:00,
2013-12-13 22:02:00,60.0,55.0,30.15,East,80,2.0,4.0,82,-99.99,,,-99.99,,2013-12-14 03:02:00,
2013-12-13 22:22:00,60.0,54.0,30.15,ENE,64,2.0,4.0,82,-99.99,,,-99.99,,2013-12-14 03:22:00,
2013-12-13 22:34:00,60.0,54.0,30.15,ENE,64,2.0,4.0,82,-99.99,,,-99.99,,2013-12-14 03:34:00,
2013-12-13 22:54:00,60.0,54.0,30.14,East,94,3.0,5.0,82,-99.99,,,-99.99,,2013-12-14 03:54:00,
2013-12-13 23:03:00,60.0,54.0,30.14,East,94,3.0,5.0,82,-99.99,,,-99.99,,2013-12-14 04:03:00,
2013-12-13 23:23:00,59.0,54.0,30.14,East,89,3.0,4.0,83,-99.99,,,-99.99,,2013-12-14 04:23:00,
2013-12-13 23:43:00,60.0,55.0,30.14,East,100,3.0,5.0,83,-99.99,,,-99.99,,2013-12-14 04:43:00,
2013-12-13 23:53:00,59.0,54.0,30.13,SE,127,4.0,5.0,86,-99.99,,,-99.99,,2013-12-14 04:53:00,